Date String (YYYY-MM-DD hh:mm:ss) UTC,Instrument flags,Ambient pressure (hPa),Sample flow (lpm),Bypass flow (lpm),Sample temperature (°C),Ambient temperature (°C),ASC tube jacket temperature (°C),LED temperature (°C),Box temperature (°C),Sample RH (%),Span deviation,Mass concentration (μg/m³),Mass concentration (μg/m³),Mass concentration (μg/m³)
DateTimeUTC,F1_M11,P_M11,Q1_M11,Q2_M11,T1_M11,T2_M11,T3_M11,T4_M11,T5_M11,U1_M11,ZSPAN_M11,X0_M11,X2_M11,X1_M11
2022-11-05 23:00:00,,0810.1,4.99,0.00,25.4,24.0,00.0,34.2,27.3,13.3,0000.0,0002.31,0000.47,0000.31
2022-11-05 23:01:00,,0810.2,4.99,0.00,25.4,24.0,00.0,34.2,27.3,13.3,0000.0,0001.50,0000.45,0000.30
2022-11-05 23:02:00,,0810.3,5.00,0.00,25.4,24.0,00.0,34.2,27.3,13.3,0000.0,0001.38,0000.45,0000.30
2022-11-05 23:03:00,,0810.2,5.01,0.00,25.4,24.0,00.0,34.2,27.3,13.3,0000.0,0001.44,0000.45,0000.30
2022-11-05 23:04:00,,0810.0,5.01,0.00,25.4,23.9,00.0,34.2,27.3,13.3,0000.0,0001.43,0000.45,0000.30
2022-11-05 23:05:00,,0809.9,4.98,0.00,25.4,23.9,00.0,34.2,27.3,13.3,0000.0,0001.64,0000.46,0000.30
2022-11-05 23:06:00,,0809.9,5.01,0.00,25.4,23.8,00.0,34.2,27.2,13.3,0000.0,0002.46,0000.47,0000.31
2022-11-05 23:07:00,,0809.7,5.00,0.00,25.3,23.8,00.0,34.1,27.2,13.5,0000.0,0002.00,0000.46,0000.31
2022-11-05 23:08:00,,0809.9,5.00,0.00,25.3,23.8,00.0,34.1,27.2,13.3,0000.0,0001.85,0000.46,0000.31
2022-11-05 23:09:00,,0809.9,4.98,0.00,25.3,23.8,00.0,34.1,27.2,13.2,0000.0,0001.81,0000.44,0000.30
2022-11-05 23:10:00,,0809.8,5.00,0.00,25.3,23.8,00.0,34.1,27.2,13.3,0000.0,0001.89,0000.46,0000.30
2022-11-05 23:11:00,,0810.0,5.01,0.00,25.3,23.8,00.0,34.1,27.2,13.3,0000.0,0001.94,0000.46,0000.31
2022-11-05 23:12:00,,0810.1,5.01,0.00,25.3,23.8,00.0,34.1,27.2,13.2,0000.0,0001.94,0000.46,0000.31
2022-11-05 23:13:00,,0810.1,4.98,0.00,25.3,23.8,00.0,34.1,27.2,13.3,0000.0,0001.91,0000.47,0000.31
2022-11-05 23:14:00,,0810.2,5.00,0.00,25.3,23.9,00.0,34.1,27.2,13.4,0000.0,0001.87,0000.47,0000.31
2022-11-05 23:15:00,,0810.4,5.01,0.00,25.3,23.9,00.0,34.1,27.2,13.4,0000.0,0001.92,0000.48,0000.31
2022-11-05 23:16:00,,0810.5,5.00,0.00,25.3,24.0,00.0,34.1,27.2,13.5,0000.0,0001.92,0000.49,0000.31
2022-11-05 23:17:00,,0810.9,5.00,0.00,25.3,24.0,00.0,34.1,27.2,13.6,0000.0,0001.02,0000.49,0000.31
2022-11-05 23:18:00,,0810.8,4.99,0.00,25.3,23.9,00.0,34.1,27.2,13.5,0000.0,0000.94,0000.50,0000.31
2022-11-05 23:19:00,,0810.6,4.99,0.00,25.3,23.8,00.0,34.1,27.2,13.5,0000.0,0000.91,0000.49,0000.30
2022-11-05 23:20:00,,0810.4,5.00,0.00,25.3,23.9,00.0,34.1,27.2,13.4,0000.0,0000.87,0000.47,0000.30
2022-11-05 23:21:00,,0810.3,5.01,0.00,25.3,23.9,00.0,34.1,27.2,13.3,0000.0,0000.90,0000.49,0000.31
2022-11-05 23:22:00,,0810.2,5.01,0.00,25.3,23.9,00.0,34.1,27.2,13.3,0000.0,0000.82,0000.48,0000.31
2022-11-05 23:23:00,,0810.2,5.00,0.00,25.3,23.9,00.0,34.1,27.2,13.3,0000.0,0000.85,0000.50,0000.31
2022-11-05 23:24:00,,0810.2,5.00,0.00,25.3,23.9,00.0,34.1,27.2,13.2,0000.0,0001.13,0000.53,0000.31
2022-11-05 23:25:00,,0810.1,5.00,0.00,25.3,24.0,00.0,34.1,27.2,13.3,0000.0,0001.36,0000.55,0000.32
2022-11-05 23:26:00,,0810.1,4.99,0.00,25.3,24.0,00.0,34.1,27.2,13.4,0000.0,0001.45,0000.58,0000.32
2022-11-05 23:27:00,,0810.1,5.00,0.00,25.3,24.0,00.0,34.1,27.2,13.4,0000.0,0002.02,0000.62,0000.31
2022-11-05 23:28:00,,0810.1,5.01,0.00,25.3,23.9,00.0,34.1,27.2,13.5,0000.0,0002.12,0000.62,0000.32
2022-11-05 23:29:00,,0810.2,5.01,0.00,25.3,23.9,00.0,34.1,27.2,13.3,0000.0,0002.09,0000.60,0000.32
2022-11-05 23:30:00,,0810.2,5.00,0.00,25.3,23.9,00.0,34.1,27.2,13.2,0000.0,0002.09,0000.60,0000.32
2022-11-05 23:31:00,,0810.2,4.99,0.00,25.4,23.9,00.0,34.1,27.3,13.2,0000.0,0002.13,0000.61,0000.32
2022-11-05 23:32:00,,0810.1,5.00,0.00,25.4,24.0,00.0,34.1,27.3,13.3,0000.0,0002.04,0000.58,0000.32
2022-11-05 23:33:00,,0809.9,5.00,0.00,25.4,24.0,00.0,34.1,27.3,13.3,0000.0,0003.14,0000.56,0000.31
2022-11-05 23:34:00,,0810.2,5.00,0.00,25.4,24.0,00.0,34.1,27.3,13.3,0000.0,0003.30,0000.55,0000.32
2022-11-05 23:35:00,,0810.3,5.00,0.00,25.4,24.0,00.0,34.1,27.3,13.3,0000.0,0003.01,0000.52,0000.31
2022-11-05 23:36:00,,0810.4,5.00,0.00,25.4,24.0,00.0,34.1,27.3,13.4,0000.0,0002.82,0000.50,0000.31
2022-11-05 23:37:00,,0810.4,5.01,0.00,25.4,24.0,00.0,34.1,27.3,13.5,0000.0,0002.66,0000.45,0000.31
2022-11-05 23:38:00,,0810.6,5.00,0.00,25.4,24.0,00.0,34.1,27.3,13.5,0000.0,0002.02,0000.40,0000.31
2022-11-05 23:39:00,,0810.6,5.00,0.00,25.4,23.9,00.0,34.1,27.3,13.4,0000.0,0002.09,0000.39,0000.30
2022-11-05 23:40:00,,0810.6,5.00,0.00,25.4,23.9,00.0,34.1,27.3,13.4,0000.0,0002.09,0000.40,0000.30
2022-11-05 23:41:00,,0810.6,5.00,0.00,25.4,23.8,00.0,34.1,27.2,13.5,0000.0,0002.07,0000.39,0000.30
2022-11-05 23:42:00,,0810.6,5.00,0.00,25.3,23.8,00.0,34.1,27.2,13.4,0000.0,0002.04,0000.38,0000.30
2022-11-05 23:43:00,,0810.7,5.01,0.00,25.3,23.8,00.0,34.1,27.2,13.4,0000.0,0002.10,0000.40,0000.30
2022-11-05 23:44:00,,0810.7,5.00,0.00,25.3,23.7,00.0,34.1,27.2,13.4,0000.0,0000.95,0000.42,0000.30
2022-11-05 23:45:00,,0810.5,5.00,0.00,25.3,23.7,00.0,34.1,27.2,13.3,0000.0,0001.93,0000.43,0000.30
2022-11-05 23:46:00,,0810.4,5.00,0.00,25.3,23.7,00.0,34.1,27.2,13.3,0000.0,0002.77,0000.46,0000.30
2022-11-05 23:47:00,,0810.4,5.00,0.00,25.3,23.7,00.0,34.1,27.1,13.4,0000.0,0002.78,0000.45,0000.30
2022-11-05 23:48:00,,0810.5,5.00,0.00,25.3,23.7,00.0,34.1,27.1,13.5,0000.0,0003.49,0000.47,0000.31
2022-11-05 23:49:00,,0810.7,4.99,0.00,25.3,23.7,00.0,34.1,27.1,13.5,0000.0,0003.89,0000.48,0000.31
2022-11-05 23:50:00,,0810.9,5.01,0.00,25.3,23.7,00.0,34.1,27.1,13.4,0000.0,0003.81,0000.48,0000.31
2022-11-05 23:51:00,,0811.0,5.00,0.00,25.3,23.7,00.0,34.1,27.2,13.6,0000.0,0003.80,0000.48,0000.31
2022-11-05 23:52:00,,0810.9,5.00,0.00,25.3,23.8,00.0,34.1,27.2,13.6,0000.0,0003.81,0000.49,0000.31
2022-11-05 23:53:00,,0810.8,5.00,0.00,25.3,23.8,00.0,34.1,27.2,13.4,0000.0,0003.90,0000.51,0000.31
2022-11-05 23:54:00,,0810.9,4.98,0.00,25.3,23.9,00.0,34.1,27.2,13.4,0000.0,0004.02,0000.54,0000.31
2022-11-05 23:55:00,,0810.5,5.00,0.00,25.3,23.9,00.0,34.1,27.2,13.4,0000.0,0004.06,0000.54,0000.31
2022-11-05 23:56:00,,0810.1,5.01,0.00,25.3,23.9,00.0,34.1,27.2,13.4,0000.0,0003.14,0000.55,0000.32
2022-11-05 23:57:00,,0810.4,5.01,0.00,25.3,23.9,00.0,34.1,27.2,13.3,0000.0,0002.30,0000.53,0000.32
2022-11-05 23:58:00,,0810.6,5.01,0.00,25.3,23.8,00.0,34.1,27.2,13.4,0000.0,0002.28,0000.51,0000.31
2022-11-05 23:59:00,,0810.5,5.00,0.00,25.3,23.8,00.0,34.1,27.2,13.4,0000.0,0001.98,0000.49,0000.31
